GW4812 Weather Reports


Display with metric or nautical units.
time (UTC)temp
F
wind
direction
speed
MPH
gust
MPH
rain 1hr
in
rain 24hr
in
rain mn
in
humidity
%
barometer
mb
20260510184052 72 196 2.0 6.0 0.00 0.00 0.00 58 1013.0
20260510183552 72 187 2.0 5.0 0.00 0.00 0.00 59 1013.0
20260510183053 71 17 2.0 5.0 0.00 0.00 0.00 62 1013.0
20260510182552 71 308 1.0 2.0 0.00 0.00 0.00 63 1013.0
20260510182053 71 5 1.0 1.0 0.00 0.00 0.00 62 1013.0
20260510181553 71 319 1.0 2.0 0.00 0.00 0.00 61 1013.0
20260510181052 71 241 2.0 3.0 0.00 0.00 0.00 61 1013.0
20260510180553 71 269 1.0 2.0 0.00 0.00 0.00 63 1013.0
20260510180052 71 195 1.0 3.0 0.00 0.00 0.00 64 1013.0
20260510175553 71 355 1.0 2.0 0.00 0.00 0.00 65 1013.0
20260510175053 71 235 1.0 2.0 0.00 0.00 0.00 65 1013.0
20260510174553 71 9 1.0 1.0 0.00 0.00 0.00 64 1013.0
20260510174052 71 190 0.0 1.0 0.00 0.00 0.00 64 1013.0
20260510173553 71 206 2.0 3.0 0.00 0.00 0.00 62 1013.0
20260510173053 71 22 2.0 2.0 0.00 0.00 0.00 66 1013.0
20260510172553 71 234 2.0 2.0 0.00 0.00 0.00 66 1013.0
20260510172052 71 217 2.0 3.0 0.00 0.00 0.00 67 1013.0
20260510171554 70 36 1.0 1.0 0.00 0.00 0.00 68 1013.0
20260510171053 70 264 1.0 2.0 0.00 0.00 0.00 68 1013.0
20260510170552 70 277 0.0 0.0 0.00 0.00 0.00 69 1013.0
20260510170053 70 54 0.0 0.0 0.00 0.00 0.00 68 1013.0
20260510165552 70 338 2.0 2.0 0.00 0.00 0.00 69 1013.0
20260510165053 69 86 0.0 0.0 0.00 0.00 0.00 68 1013.0
20260510164553 69 237 1.0 2.0 0.00 0.00 0.00 71 1013.0
20260510164054 68 0 0.0 0.0 0.00 0.00 0.00 73 1013.0
20260510163553 67 212 1.0 3.0 0.00 0.00 0.00 73 1013.0
20260510163052 67 261 1.0 1.0 0.00 0.00 0.00 74 1013.0
20260510162553 66 244 2.0 2.0 0.00 0.00 0.00 74 1013.0
20260510162052 66 189 1.0 2.0 0.00 0.00 0.00 75 1013.0
20260510161552 66 255 1.0 1.0 0.00 0.00 0.00 75 1013.0
20260510161054 65 211 1.0 2.0 0.00 0.00 0.00 76 1013.0
20260510160554 65 275 2.0 3.0 0.00 0.00 0.00 77 1013.0
20260510160053 65 267 2.0 3.0 0.00 0.00 0.00 77 1013.0
20260510155552 65 182 1.0 2.0 0.00 0.00 0.00 77 1014.0
20260510155052 64 305 2.0 2.0 0.00 0.00 0.00 78 1014.0
20260510154552 64 314 2.0 3.0 0.00 0.00 0.00 79 1014.0
20260510154054 64 206 0.0 1.0 0.00 0.00 0.00 79 1014.0
20260510153553 63 236 1.0 2.0 0.00 0.00 0.00 79 1014.0
20260510153053 63 162 0.0 1.0 0.00 0.00 0.00 80 1014.0
20260510152552 63 213 1.0 2.0 0.00 0.00 0.00 81 1014.0
20260510152052 62 194 2.0 2.0 0.00 0.00 0.00 82 1014.0
20260510151553 62 199 1.0 2.0 0.00 0.00 0.00 83 1014.0
20260510151053 61 167 2.0 2.0 0.00 0.00 0.00 83 1014.0
20260510150553 60 0 0.0 0.0 0.00 0.00 0.00 85 1014.0
20260510150053 60 204 2.0 2.0 0.00 0.00 0.00 85 1014.0
20260510145552 60 207 2.0 2.0 0.00 0.00 0.00 85 1014.0
20260510145052 60 235 1.0 1.0 0.00 0.00 0.00 85 1014.0
20260510144552 59 127 1.0 2.0 0.00 0.00 0.00 86 1014.0
20260510144052 59 177 1.0 2.0 0.00 0.00 0.00 87 1014.0
20260510143553 58 221 1.0 2.0 0.00 0.00 0.00 87 1014.0
20260510143053 58 183 0.0 1.0 0.00 0.00 0.00 88 1014.0
20260510142552 57 181 0.0 1.0 0.00 0.00 0.00 88 1014.0
20260510142052 57 0 0.0 0.0 0.00 0.00 0.00 90 1014.0
20260510141553 56 247 1.0 2.0 0.00 0.00 0.00 90 1014.0
20260510141053 56 304 0.0 1.0 0.00 0.00 0.00 91 1014.0
20260510140553 56 254 0.0 1.0 0.00 0.00 0.00 91 1014.0
20260510140053 55 223 0.0 0.0 0.00 0.00 0.00 92 1014.0
20260510135552 55 212 2.0 2.0 0.00 0.00 0.00 92 1013.0
20260510135052 55 252 2.0 2.0 0.00 0.00 0.00 92 1013.0
20260510134552 55 280 1.0 2.0 0.00 0.00 0.00 92 1013.0
20260510134052 55 309 0.0 1.0 0.00 0.00 0.00 92 1013.0
20260510133552 55 228 2.0 2.0 0.00 0.00 0.00 93 1014.0
20260510133053 55 196 1.0 2.0 0.00 0.00 0.00 93 1014.0
20260510132553 55 241 1.0 1.0 0.00 0.00 0.00 93 1014.0
20260510132052 55 175 0.0 1.0 0.00 0.00 0.00 93 1014.0
20260510131552 55 228 1.0 1.0 0.00 0.00 0.00 94 1014.0
20260510131052 54 207 2.0 2.0 0.00 0.00 0.00 95 1014.0
20260510130553 54 227 1.0 1.0 0.00 0.00 0.00 95 1014.0
20260510130052 54 229 1.0 2.0 0.00 0.00 0.00 96 1014.0
20260510125553 53 0 0.0 0.0 0.00 0.00 0.00 97 1013.0
20260510125053 53 216 2.0 2.0 0.00 0.00 0.00 97 1013.0
20260510124105 52 166 1.0 1.0 0.00 0.00 0.00 97 1013.0
20260510123552 52 164 1.0 1.0 0.00 0.00 0.00 97 1013.0
20260510123052 52 0 0.0 0.0 0.00 0.00 0.00 97 1013.0
20260510122553 52 0 1.0 1.0 0.00 0.00 0.00 97 1013.0
20260510122052 51 0 0.0 0.0 0.00 0.00 0.00 97 1013.0
20260510121552 51 230 1.0 1.0 0.00 0.00 0.00 97 1013.0
20260510121052 51 248 1.0 1.0 0.00 0.00 0.00 97 1013.0
20260510120553 51 300 1.0 1.0 0.00 0.00 0.00 97 1013.0
20260510120052 51 0 0.0 0.0 0.00 0.00 0.00 97 1013.0
20260510115553 51 165 1.0 2.0 0.00 0.00 0.00 97 1013.0
20260510115052 51 0 0.0 0.0 0.00 0.00 0.00 97 1013.0
20260510114103 51 226 1.0 1.0 0.00 0.00 0.00 97 1013.0
20260510113553 51 219 1.0 1.0 0.00 0.00 0.00 97 1013.0
20260510113053 51 211 0.0 1.0 0.00 0.00 0.00 97 1013.0
20260510112552 51 0 0.0 0.0 0.00 0.00 0.00 97 1013.0
20260510112053 51 244 1.0 1.0 0.00 0.00 0.00 97 1013.0
20260510111553 50 227 1.0 2.0 0.00 0.00 0.00 97 1013.0
20260510111053 50 0 0.0 0.0 0.00 0.00 0.00 97 1013.0
20260510110553 50 197 0.0 0.0 0.00 0.00 0.00 97 1012.0
20260510110053 50 199 0.0 0.0 0.00 0.00 0.00 97 1012.0
20260510105553 50 0 0.0 0.0 0.00 0.00 0.00 97 1012.0
20260510105053 50 0 0.0 0.0 0.00 0.00 0.00 97 1012.0
20260510104552 50 0 0.0 0.0 0.00 0.00 0.00 97 1012.0
20260510104052 50 0 0.0 0.0 0.00 0.00 0.00 97 1012.0
20260510103552 50 0 0.0 0.0 0.00 0.00 0.00 97 1012.0
20260510103052 50 230 1.0 1.0 0.00 0.00 0.00 97 1012.0
20260510102552 50 235 1.0 1.0 0.00 0.00 0.00 97 1012.0
20260510102052 49 0 0.0 0.0 0.00 0.00 0.00 97 1012.0
20260510101552 49 196 0.0 1.0 0.00 0.00 0.00 97 1012.0
20260510101052 49 178 0.0 1.0 0.00 0.00 0.00 97 1012.0
20260510100553 49 255 0.0 0.0 0.00 0.00 0.00 97 1012.0
20260510100052 49 187 0.0 0.0 0.00 0.00 0.00 97 1012.0
20260510095552 49 249 1.0 1.0 0.00 0.00 0.00 97 1012.0
20260510095052 49 280 0.0 1.0 0.00 0.00 0.00 97 1012.0
20260510094553 49 133 1.0 1.0 0.00 0.00 0.00 97 1012.0
20260510094055 49 0 0.0 0.0 0.00 0.00 0.00 97 1012.0
20260510093554 49 184 0.0 0.0 0.00 0.00 0.00 97 1012.0
20260510093052 49 260 0.0 1.0 0.00 0.00 0.00 97 1012.0
20260510092552 49 253 0.0 1.0 0.00 0.00 0.00 97 1012.0
20260510092052 50 211 0.0 1.0 0.00 0.00 0.00 97 1012.0
20260510091554 50 0 0.0 0.0 0.00 0.00 0.00 97 1012.0
20260510091052 50 248 1.0 1.0 0.00 0.00 0.00 97 1012.0
20260510090552 50 187 0.0 1.0 0.00 0.00 0.00 97 1012.0
20260510090052 50 172 0.0 0.0 0.00 0.00 0.00 97 1012.0
20260510085554 50 0 0.0 0.0 0.00 0.00 0.00 97 1012.0
20260510085053 50 191 0.0 0.0 0.00 0.00 0.00 97 1012.0
20260510084553 50 198 0.0 1.0 0.00 0.00 0.00 97 1013.0
20260510084052 50 209 2.0 2.0 0.00 0.00 0.00 97 1012.0
20260510083553 50 174 1.0 1.0 0.00 0.00 0.00 97 1012.0
20260510083053 50 0 0.0 0.0 0.00 0.00 0.00 97 1012.0
20260510082552 50 183 2.0 2.0 0.00 0.00 0.00 97 1012.0
20260510082052 50 168 0.0 0.0 0.00 0.00 0.00 97 1012.0
20260510081552 50 297 0.0 1.0 0.00 0.00 0.00 97 1012.0
20260510081053 50 173 2.0 2.0 0.00 0.00 0.00 96 1012.0
20260510080552 50 67 0.0 1.0 0.00 0.00 0.00 96 1012.0
20260510080054 50 0 0.0 0.0 0.00 0.00 0.00 96 1012.0
20260510075552 50 193 0.0 1.0 0.00 0.00 0.00 96 1012.0
20260510075052 50 176 0.0 0.0 0.00 0.00 0.00 96 1012.0
20260510074552 50 188 1.0 1.0 0.00 0.00 0.00 96 1012.0
20260510074052 50 122 1.0 2.0 0.00 0.00 0.00 96 1012.0
20260510073552 50 213 1.0 1.0 0.00 0.00 0.00 96 1011.0
20260510073052 50 0 0.0 0.0 0.00 0.00 0.00 96 1011.0
20260510072552 50 0 0.0 0.0 0.00 0.00 0.00 97 1011.0
20260510072052 50 0 0.0 0.0 0.00 0.00 0.00 96 1011.0
20260510071553 50 182 0.0 0.0 0.00 0.00 0.00 97 1011.0
20260510071053 50 227 1.0 1.0 0.00 0.00 0.00 96 1011.0
20260510070554 50 0 0.0 0.0 0.00 0.00 0.00 96 1011.0
20260510070052 50 243 1.0 1.0 0.00 0.00 0.00 96 1012.0
20260510065552 50 0 0.0 0.0 0.00 0.00 0.00 97 1011.0
20260510065052 50 231 0.0 1.0 0.00 0.00 0.00 96 1012.0
20260510064553 50 0 0.0 0.0 0.00 0.00 0.00 96 1012.0
20260510064052 50 0 0.0 0.0 0.00 0.00 0.00 97 1012.0
20260510063553 50 0 0.0 0.0 0.00 0.00 0.00 97 1012.0
20260510063052 50 0 0.0 0.0 0.00 0.00 0.00 97 1012.0
20260510062552 50 0 0.0 0.0 0.00 0.00 0.00 97 1012.0
20260510062052 50 0 0.0 0.0 0.00 0.00 0.00 97 1012.0
20260510061553 50 199 0.0 0.0 0.00 0.00 0.00 96 1012.0
20260510061052 50 0 0.0 0.0 0.00 0.00 0.00 96 1011.0
20260510060553 50 242 0.0 0.0 0.00 0.00 0.00 96 1011.0
20260510060054 49 263 0.0 1.0 0.00 0.00 0.00 96 1011.0
20260510055552 49 249 0.0 1.0 0.00 0.00 0.00 96 1011.0
20260510055052 49 0 0.0 0.0 0.00 0.00 0.00 96 1011.0
20260510054552 49 0 0.0 0.0 0.00 0.00 0.00 96 1011.0
20260510054053 49 184 0.0 1.0 0.00 0.00 0.00 96 1011.0
20260510053552 49 0 0.0 0.0 0.00 0.00 0.00 96 1011.0
20260510053054 49 0 0.0 0.0 0.00 0.00 0.00 96 1011.0
20260510052552 48 0 0.0 0.0 0.00 0.00 0.00 96 1012.0
20260510052052 48 248 1.0 1.0 0.00 0.00 0.00 96 1012.0
20260510051552 48 174 0.0 1.0 0.00 0.00 0.00 96 1012.0
20260510051053 48 267 0.0 1.0 0.00 0.00 0.00 96 1012.0
20260510050552 48 245 1.0 1.0 0.00 0.00 0.00 96 1012.0
20260510050052 47 258 0.0 1.0 0.00 0.00 0.00 96 1012.0
20260510045553 47 176 0.0 1.0 0.00 0.00 0.00 96 1012.0
20260510045053 47 253 0.0 0.0 0.00 0.00 0.00 96 1012.0
20260510044552 47 240 1.0 1.0 0.00 0.00 0.00 96 1012.0
20260510044052 47 248 1.0 1.0 0.00 0.00 0.00 96 1012.0
20260510043552 47 269 0.0 0.0 0.00 0.00 0.00 96 1012.0
20260510043053 47 270 0.0 1.0 0.00 0.00 0.00 96 1012.0
20260510042552 47 271 1.0 1.0 0.00 0.00 0.00 96 1012.0
20260510042053 47 0 0.0 0.0 0.00 0.00 0.00 96 1012.0
20260510041553 47 185 0.0 1.0 0.00 0.00 0.00 96 1012.0
20260510041053 47 237 0.0 1.0 0.00 0.00 0.00 96 1012.0
20260510040553 47 0 0.0 0.0 0.00 0.00 0.00 96 1012.0
20260510040052 47 262 0.0 1.0 0.00 0.00 0.17 96 1012.0
20260510035553 47 267 1.0 1.0 0.00 0.00 0.17 96 1012.0
20260510035052 47 0 0.0 0.0 0.00 0.00 0.17 96 1012.0
20260510034552 47 251 1.0 1.0 0.00 0.00 0.17 96 1012.0
20260510034052 47 262 0.0 0.0 0.00 0.00 0.17 96 1011.0
20260510033553 47 263 0.0 0.0 0.00 0.00 0.17 96 1011.0
20260510033052 47 264 0.0 1.0 0.00 0.00 0.17 95 1011.0
20260510032552 47 253 1.0 1.0 0.00 0.00 0.17 95 1011.0
20260510032052 47 259 0.0 0.0 0.00 0.00 0.17 95 1011.0
20260510031553 48 276 0.0 1.0 0.00 0.00 0.17 95 1011.0
20260510031053 48 270 0.0 0.0 0.00 0.00 0.17 95 1011.0
20260510030554 48 262 0.0 1.0 0.00 0.00 0.17 95 1011.0
20260510030054 48 256 0.0 1.0 0.00 0.00 0.17 95 1011.0
20260510025553 48 206 0.0 0.0 0.00 0.00 0.17 95 1011.0
20260510025052 48 268 0.0 1.0 0.00 0.00 0.17 95 1011.0
20260510024553 48 0 0.0 0.0 0.00 0.00 0.17 95 1011.0
20260510024053 48 260 1.0 1.0 0.00 0.00 0.17 95 1011.0
20260510023552 48 272 0.0 0.0 0.00 0.00 0.17 95 1011.0
20260510023052 48 258 0.0 0.0 0.00 0.00 0.17 95 1011.0
20260510022552 48 259 0.0 1.0 0.00 0.00 0.17 95 1011.0
20260510022052 49 265 1.0 2.0 0.00 0.00 0.17 95 1011.0
20260510021553 49 185 1.0 2.0 0.00 0.00 0.17 95 1011.0
20260510021052 49 236 1.0 2.0 0.00 0.00 0.17 94 1011.0
20260510020554 49 0 0.0 0.0 0.00 0.00 0.17 94 1011.0
20260510020054 49 272 1.0 1.0 0.00 0.00 0.17 94 1011.0
20260510015552 49 266 1.0 1.0 0.00 0.00 0.17 94 1011.0
20260510015052 49 254 0.0 0.0 0.00 0.00 0.17 94 1011.0
20260510014552 49 258 0.0 1.0 0.00 0.00 0.17 94 1011.0
20260510014052 49 0 0.0 0.0 0.00 0.00 0.17 94 1011.0
20260510013552 50 0 0.0 0.0 0.00 0.00 0.17 94 1011.0
20260510013052 50 162 0.0 1.0 0.00 0.00 0.17 94 1011.0
20260510012552 50 223 0.0 0.0 0.00 0.00 0.17 94 1011.0
20260510012053 50 243 0.0 1.0 0.00 0.00 0.17 94 1011.0
20260510011553 50 264 0.0 0.0 0.00 0.00 0.17 94 1011.0
20260510011053 50 246 1.0 1.0 0.00 0.00 0.17 94 1011.0
20260510010553 51 217 0.0 1.0 0.00 0.00 0.17 94 1011.0
20260510010053 51 269 0.0 1.0 0.00 0.00 0.17 94 1011.0
20260510005552 51 251 0.0 1.0 0.00 0.00 0.17 93 1011.0
20260510005052 51 287 0.0 1.0 0.00 0.00 0.17 93 1011.0
20260510004552 51 0 0.0 0.0 0.00 0.00 0.17 93 1011.0
20260510004052 52 0 0.0 0.0 0.00 0.00 0.17 93 1011.0
20260510003552 52 256 0.0 0.0 0.00 0.00 0.17 93 1011.0
20260510003052 52 271 0.0 1.0 0.00 0.00 0.17 93 1011.0
20260510002552 52 0 0.0 0.0 0.00 0.00 0.17 93 1011.0
20260510002052 52 0 0.0 0.0 0.00 0.00 0.17 93 1011.0
20260510001552 53 0 0.0 0.0 0.00 0.00 0.17 93 1011.0
20260510001052 53 0 0.0 0.0 0.00 0.00 0.17 92 1011.0
20260510000552 53 0 0.0 0.0 0.00 0.00 0.17 92 1011.0
20260510000057 53 215 0.0 1.0 0.00 0.00 0.17 92 1011.0
20260509235552 53 0 0.0 0.0 0.00 0.00 0.17 92 1011.0
20260509235053 53 0 0.0 0.0 0.00 0.00 0.17 92 1011.0
20260509234555 54 0 0.0 0.0 0.00 0.00 0.17 92 1011.0
20260509234053 54 0 0.0 0.0 0.00 0.00 0.17 92 1011.0
20260509233552 54 0 0.0 0.0 0.00 0.00 0.17 92 1011.0
20260509233052 54 0 0.0 0.0 0.00 0.00 0.17 92 1011.0
20260509232552 54 0 0.0 0.0 0.00 0.00 0.17 91 1011.0
20260509232052 55 0 0.0 0.0 0.00 0.00 0.17 91 1010.0
20260509231554 55 0 0.0 0.0 0.00 0.00 0.17 92 1010.0
20260509231053 55 0 0.0 0.0 0.00 0.00 0.17 92 1010.0
20260509230553 55 0 0.0 0.0 0.00 0.00 0.17 92 1010.0
20260509230053 55 208 0.0 1.0 0.00 0.00 0.17 92 1011.0
20260509225552 55 0 0.0 0.0 0.00 0.00 0.17 92 1011.0
20260509225054 55 270 0.0 1.0 0.00 0.00 0.17 92 1011.0
20260509224552 55 0 0.0 0.0 0.00 0.00 0.17 91 1011.0
20260509224052 55 148 0.0 1.0 0.00 0.00 0.17 92 1011.0
20260509223552 55 0 0.0 0.0 0.00 0.00 0.17 92 1011.0
20260509223052 55 132 0.0 0.0 0.00 0.00 0.17 92 1011.0
20260509222552 55 298 1.0 1.0 0.00 0.00 0.17 93 1011.0
20260509222053 55 113 1.0 2.0 0.00 0.00 0.17 93 1011.0
20260509221553 55 0 0.0 0.0 0.00 0.00 0.17 93 1011.0
20260509221052 55 0 0.0 0.0 0.00 0.00 0.17 93 1011.0
20260509220553 54 231 0.0 1.0 0.00 0.00 0.17 93 1011.0
20260509220052 54 108 1.0 2.0 0.00 0.00 0.17 93 1011.0
20260509215552 54 303 0.0 1.0 0.00 0.00 0.17 93 1011.0
20260509215052 54 102 0.0 1.0 0.00 0.00 0.17 93 1011.0
20260509214552 54 129 0.0 0.0 0.00 0.00 0.17 93 1011.0
20260509214052 54 162 1.0 1.0 0.00 0.00 0.17 93 1011.0
20260509213552 54 123 1.0 2.0 0.02 0.00 0.17 93 1011.0
20260509213052 54 118 0.0 0.0 0.00 0.00 0.17 92 1011.0
20260509212552 54 229 0.0 0.0 0.04 0.00 0.16 92 1011.0
20260509212053 54 164 1.0 1.0 0.01 0.00 0.16 92 1011.0
20260509211553 54 141 0.0 0.0 0.01 0.00 0.16 91 1011.0
20260509211052 55 174 1.0 1.0 0.03 0.00 0.15 91 1011.0
20260509210553 55 158 0.0 0.0 0.16 0.00 0.15 91 1011.0
20260509210053 55 0 0.0 0.0 0.01 0.00 0.14 91 1011.0
20260509205555 55 200 1.0 1.0 0.11 0.00 0.13 90 1011.0
20260509205052 55 191 1.0 1.0 0.05 0.00 0.12 90 1011.0
20260509204553 55 0 0.0 0.0 0.07 0.00 0.12 90 1011.0
20260509204053 55 249 1.0 2.0 0.14 0.00 0.10 90 1011.0
20260509203555 55 249 0.0 0.0 0.00 0.00 0.10 89 1011.0
20260509203053 55 171 1.0 1.0 0.00 0.00 0.09 89 1011.0
20260509202552 55 0 0.0 0.0 0.07 0.00 0.09 89 1011.0
20260509202053 55 205 1.0 1.0 0.16 0.00 0.08 88 1011.0
20260509201552 55 292 1.0 1.0 0.02 0.00 0.08 89 1011.0
20260509201052 55 258 1.0 2.0 0.06 0.00 0.07 89 1011.0
20260509200552 55 258 1.0 1.0 0.00 0.00 0.07 90 1011.0
20260509200052 55 259 0.0 0.0 0.03 0.00 0.07 90 1011.0
20260509195553 55 298 0.0 0.0 0.01 0.00 0.07 90 1011.0
20260509195052 55 0 0.0 0.0 0.00 0.00 0.07 90 1011.0
20260509194553 55 0 0.0 0.0 0.02 0.00 0.07 90 1011.0
20260509194053 55 169 1.0 2.0 0.06 0.00 0.06 90 1011.0
20260509193554 55 162 0.0 1.0 0.00 0.00 0.06 90 1012.0
20260509193052 55 214 1.0 2.0 0.32 0.00 0.06 89 1012.0
20260509192553 55 270 1.0 2.0 0.04 0.00 0.05 88 1011.0
20260509192052 56 159 0.0 1.0 0.08 0.00 0.04 88 1011.0
20260509191553 56 193 0.0 1.0 0.03 0.00 0.03 87 1011.0
20260509191053 56 74 0.0 1.0 0.12 0.00 0.03 86 1011.0
20260509190122 57 235 0.0 1.0 0.00 0.00 0.02 85 1011.0
20260509185553 57 273 0.0 2.0 0.00 0.00 0.02 84 1011.0
20260509185052 57 63 1.0 2.0 0.00 0.00 0.02 83 1011.0
20260509184552 57 200 0.0 1.0 0.00 0.00 0.02 84 1012.0